Regional Weather Roundup
Issued by NWS Albany, NY

Home | Current Version | Previous Version | Text Only | Print | Product List | Glossary On
Versions: 1 2 3 4 5 6 7 8 9 10 11 12 13 14 15 16 17 18 19 20 21 22 23 24 25 26 27 28 29 30 31 32 33 34 35 36 37 38 39 40 41 42 43 44 45 46 47 48 49 50
000
ASUS41 KALY 311010
RWRALY

NEW YORK STATE HOURLY WEATHER ROUNDUP
NATIONAL WEATHER SERVICE ALBANY NY
600 AM EDT FRI JUL 31 2015

NOTE: "FAIR" INDICATES FEW OR NO CLOUDS BELOW 12,000 FEET WITH NO
SIGNIFICANT WEATHER AND/OR NO OBSTRUCTIONS TO VISIBILITY.

NYZ032-033-038>043-046>054-057>066-NYZ062>081-311100-
EAST


CITY           SKY/WX    TMP DP  RH WIND       PRES   REMARKS
ALBANY         PTCLDY    69  58  67 W8        29.82R
GLENS FALLS    FOG       58  55  90 N5        29.80R VSB 3/4
POUGHKEEPSIE   CLEAR     63  62  97 CALM      29.84R
NEWBURGH       CLEAR     63  61  94 W6        29.87R
MONTGOMERY     CLEAR     62  59  90 S6        29.86S
WHITE PLAINS   PTCLDY    69  62  78 W8        29.86R
ISLIP          MOCLDY    71  68  90 NW5       29.83R
NEW YORK CITY  PTCLDY    75  61  61 NW8       29.85R
CENTRAL PARK   CLEAR     73  62  68 NW3       29.89R
$$

NYZ005>009-017-018-044>046-055-056-311100-
CENTRAL


CITY           SKY/WX    TMP DP  RH WIND       PRES   REMARKS
FULTON         CLEAR     64  59  83 W6        29.86R
SYRACUSE       PTCLDY    67  62  84 W10       29.85R
ROME           CLEAR     59  58  96 CALM      29.85R
ELMIRA         CLEAR     61  59  93 SW9       29.90S
BINGHAMTON     CLEAR     60  56  86 W6        29.91R
MONTICELLO     CLEAR     57  55  94 CALM      29.92S
$$

NYZ026>034-041>043-311100-
NORTH


CITY           SKY/WX    TMP DP  RH WIND       PRES   REMARKS
WATERTOWN      CLEAR     66  56  70 W9        29.82R
FORT DRUM      NOT AVBL
MASSENA        MOCLDY    63  56  78 SW8       29.75R
SARANAC LAKE   CLEAR     60  56  86 W6        29.80R
PLATTSBURGH    CLEAR     60  58  92 CALM      29.74R
$$

NYZ001>004-010>016-019>021-311100-
WEST


CITY           SKY/WX    TMP DP  RH WIND       PRES   REMARKS
NIAGARA FALLS  CLEAR     62  55  77 NW3       29.89R
BUFFALO        PTCLDY    65  57  75 S3        29.90R
DUNKIRK        CLEAR     62  60  93 S5        29.92S
JAMESTOWN      CLEAR     64  57  77 W6        29.97S
WELLSVILLE     PTCLDY    62  56  80 MISG      29.98R
ROCHESTER      PTCLDY    64  59  83 W5        29.89R
PENN YAN       CLEAR     66  59  78 S7        29.90R
$$

             KEY
       WCI = WIND CHILL INDEX
       VSB = VISIBILITY
       HX  = HEAT INDEX
$$



USA.gov is the U.S. government's official web portal to all federal, state and local government web resources and services.